| time (UTC) | temp C | wind direction | speed KPH | gust KPH | rain 1hr cm | rain 24hr cm | rain mn cm | humidity % | barometer mb |
| 20260505051558 | 7 | 259 | 3.2 | 20.9 | 0.00 | 2.01 | 0.00 | 89 | 1006.5 |
| 20260505041558 | 7 | 221 | 4.8 | 16.1 | 0.00 | 2.06 | 0.00 | 86 | 1005.7 |
| 20260505040100 | 8 | 240 | 3.2 | 12.9 | 0.00 | 2.06 | 0.00 | 85 | 1005.4 |
| 20260505034558 | 8 | 219 | 3.2 | 16.1 | 0.00 | 2.11 | 0.00 | 85 | 1005.4 |
| 20260505033056 | 8 | 286 | 1.6 | 11.3 | 0.00 | 2.11 | 0.00 | 83 | 1005.2 |
| 20260505031610 | 8 | 240 | 6.4 | 14.5 | 0.00 | 2.11 | 0.00 | 82 | 1005.0 |
| 20260505030059 | 8 | 267 | 4.8 | 17.7 | 0.00 | 2.11 | 0.00 | 82 | 1004.9 |
| 20260505024608 | 9 | 214 | 8.0 | 27.4 | 0.00 | 2.11 | 2.11 | 80 | 1004.5 |
| 20260505023056 | 9 | 184 | 9.7 | 22.5 | 0.00 | 2.11 | 2.11 | 80 | 1004.4 |
| 20260505021612 | 9 | 265 | 6.4 | 25.7 | 0.00 | 2.11 | 2.11 | 80 | 1004.4 |
| 20260505020057 | 9 | 14 | 8.0 | 19.3 | 0.00 | 2.11 | 2.11 | 80 | 1004.3 |
| 20260505014555 | 9 | 238 | 4.8 | 20.9 | 0.00 | 2.11 | 2.11 | 80 | 1004.2 |
| 20260505013058 | 9 | 205 | 4.8 | 27.4 | 0.00 | 2.11 | 2.11 | 80 | 1004.1 |
| 20260505011557 | 10 | 195 | 9.7 | 35.4 | 0.00 | 2.11 | 2.11 | 78 | 1004.2 |
| 20260505010056 | 10 | 211 | 9.7 | 29.0 | 0.00 | 2.11 | 2.11 | 78 | 1004.0 |
| 20260505004601 | 10 | 309 | 8.0 | 22.5 | 0.00 | 2.21 | 2.11 | 77 | 1003.9 |
| 20260505003055 | 10 | 242 | 11.3 | 32.2 | 0.00 | 2.21 | 2.11 | 76 | 1003.7 |
| 20260505001556 | 10 | 217 | 9.7 | 24.1 | 0.00 | 2.21 | 2.11 | 75 | 1003.5 |
| 20260505000058 | 10 | 240 | 3.2 | 12.9 | 0.00 | 2.21 | 2.11 | 71 | 1003.2 |
| 20260504234555 | 10 | 252 | 9.7 | 25.7 | 0.00 | 2.51 | 2.11 | 67 | 1003.0 |
| 20260504233102 | 10 | 244 | 12.9 | 29.0 | 0.00 | 2.51 | 2.11 | 68 | 1002.8 |
| 20260504231557 | 8 | 226 | 4.8 | 17.7 | 0.00 | 2.51 | 2.11 | 73 | 1002.5 |
| 20260504230058 | 8 | 246 | 1.6 | 14.5 | 0.00 | 2.51 | 2.11 | 73 | 1002.3 |
| 20260504224555 | 9 | 265 | 1.6 | 11.3 | 0.00 | 2.74 | 2.11 | 71 | 1002.4 |
| 20260504223103 | 10 | 53 | 1.6 | 24.1 | 0.00 | 2.74 | 2.11 | 64 | 1002.1 |
| 20260504221605 | 10 | 0 | 6.4 | 27.4 | 0.00 | 2.74 | 2.11 | 64 | 1001.9 |
| 20260504220135 | 10 | 0 | 4.8 | 22.5 | 0.00 | 2.74 | 2.11 | 61 | 1001.7 |
| 20260504214558 | 11 | 107 | 4.8 | 17.7 | 0.00 | 3.07 | 2.11 | 61 | 1001.4 |
| 20260504213123 | 11 | 221 | 8.0 | 22.5 | 0.00 | 3.07 | 2.11 | 60 | 1001.3 |
| 20260504211557 | 11 | 243 | 6.4 | 27.4 | 0.00 | 3.07 | 2.11 | 60 | 1001.0 |
| 20260504210101 | 12 | 184 | 11.3 | 22.5 | 0.00 | 3.07 | 2.11 | 59 | 1001.0 |
| 20260504204604 | 12 | 226 | 8.0 | 25.7 | 0.00 | 3.23 | 2.11 | 60 | 1000.7 |
| 20260504203100 | 11 | 220 | 12.9 | 43.5 | 0.00 | 3.23 | 2.11 | 60 | 1000.4 |
| 20260504201609 | 11 | 217 | 11.3 | 33.8 | 0.00 | 3.23 | 2.11 | 66 | 1000.4 |
| 20260504200108 | 11 | 205 | 9.7 | 37.0 | 0.00 | 3.23 | 2.11 | 66 | 1000.3 |
| 20260504194555 | 11 | 265 | 6.4 | 35.4 | 0.00 | 3.38 | 2.11 | 69 | 1000.0 |
| 20260504193055 | 11 | 184 | 14.5 | 38.6 | 0.00 | 3.38 | 2.11 | 70 | 999.5 |
| 20260504191556 | 11 | 208 | 16.1 | 43.5 | 0.00 | 3.38 | 2.11 | 72 | 999.5 |
| 20260504190057 | 11 | 263 | 19.3 | 40.2 | 0.00 | 3.38 | 2.11 | 74 | 999.3 |
| 20260504184559 | 10 | 227 | 11.3 | 32.2 | 0.00 | 3.53 | 2.11 | 78 | 999.1 |
| 20260504183059 | 10 | 266 | 12.9 | 37.0 | 0.00 | 3.53 | 2.11 | 81 | 998.8 |
| 20260504181556 | 9 | 232 | 14.5 | 46.7 | 0.00 | 3.53 | 2.11 | 83 | 998.9 |
| 20260504180056 | 8 | 262 | 9.7 | 29.0 | 0.00 | 3.53 | 2.11 | 85 | 998.6 |
| 20260504174559 | 8 | 230 | 11.3 | 35.4 | 0.00 | 3.53 | 2.11 | 86 | 998.3 |
| 20260504173059 | 7 | 225 | 11.3 | 35.4 | 0.00 | 3.53 | 2.11 | 89 | 998.1 |
| 20260504171558 | 7 | 223 | 12.9 | 33.8 | 0.00 | 3.53 | 2.11 | 90 | 997.8 |
| 20260504170132 | 7 | 213 | 4.8 | 49.9 | 0.00 | 3.53 | 2.11 | 92 | 997.6 |
| 20260504100103 | 2 | 234 | 8.0 | 38.6 | 0.08 | 1.98 | 0.56 | 98 | 982.8 |
| 20260504081556 | 2 | 261 | 3.2 | 12.9 | 0.10 | 1.85 | 0.43 | 100 | 978.0 |